| time (UTC) | temp C | wind direction | speed KPH | gust KPH | rain 1hr cm | rain 24hr cm | rain mn cm | humidity % | barometer mb |
| 20260508134530 | 12 | 238 | 4.8 | 14.5 | 0.00 | 0.00 | 0.00 | 70 | 1006.1 |
| 20260508133105 | 11 | 263 | 4.8 | 17.7 | 0.00 | 0.00 | 0.00 | 70 | 1006.0 |
| 20260508131509 | 11 | 273 | 4.8 | 20.9 | 0.00 | 0.00 | 0.00 | 70 | 1006.2 |
| 20260508130043 | 11 | 299 | 8.0 | 14.5 | 0.00 | 0.00 | 0.00 | 70 | 1006.3 |
| 20260508124635 | 11 | 202 | 4.8 | 17.7 | 0.00 | 0.00 | 0.00 | 70 | 1006.2 |
| 20260508123115 | 10 | 230 | 4.8 | 14.5 | 0.00 | 0.00 | 0.00 | 72 | 1006.2 |
| 20260508121524 | 9 | 212 | 4.8 | 12.9 | 0.00 | 0.00 | 0.00 | 73 | 1006.2 |
| 20260508120057 | 10 | 218 | 4.8 | 12.9 | 0.00 | 0.00 | 0.00 | 74 | 1006.1 |
| 20260508114513 | 9 | 188 | 4.8 | 14.5 | 0.00 | 0.00 | 0.00 | 74 | 1005.9 |
| 20260508113100 | 8 | 212 | 3.2 | 11.3 | 0.00 | 0.00 | 0.00 | 77 | 1005.5 |
| 20260508111527 | 8 | 222 | 4.8 | 9.7 | 0.00 | 0.00 | 0.00 | 80 | 1005.6 |
| 20260508110104 | 8 | 211 | 4.8 | 11.3 | 0.00 | 0.00 | 0.00 | 80 | 1005.5 |
| 20260508104535 | 8 | 216 | 1.6 | 8.0 | 0.00 | 0.00 | 0.00 | 79 | 1005.5 |
| 20260508103102 | 8 | 211 | 4.8 | 14.5 | 0.00 | 0.00 | 0.00 | 77 | 1005.2 |
| 20260508101531 | 8 | 234 | 6.4 | 16.1 | 0.00 | 0.00 | 0.00 | 75 | 1005.3 |
| 20260508100114 | 9 | 192 | 12.9 | 20.9 | 0.00 | 0.00 | 0.00 | 73 | 1005.6 |
| 20260508094539 | 8 | 197 | 6.4 | 14.5 | 0.00 | 0.00 | 0.00 | 78 | 1005.7 |
| 20260508093057 | 8 | 180 | 0.0 | 9.7 | 0.00 | 0.00 | 0.00 | 80 | 1005.5 |
| 20260508091518 | 8 | 246 | 3.2 | 8.0 | 0.00 | 0.00 | 0.00 | 80 | 1005.6 |
| 20260508090043 | 7 | 242 | 0.0 | 8.0 | 0.00 | 0.00 | 0.00 | 79 | 1005.6 |
| 20260508084642 | 7 | 225 | 0.0 | 9.7 | 0.00 | 0.00 | 0.00 | 80 | 1005.7 |
| 20260508083019 | 7 | 180 | 4.8 | 14.5 | 0.00 | 0.00 | 0.00 | 80 | 1005.7 |
| 20260508081619 | 7 | 208 | 1.6 | 11.3 | 0.00 | 0.00 | 0.00 | 80 | 1005.9 |
| 20260508080023 | 7 | 221 | 8.0 | 14.5 | 0.00 | 0.00 | 0.00 | 80 | 1005.8 |
| 20260508074600 | 7 | 213 | 6.4 | 11.3 | 0.00 | 0.00 | 0.00 | 79 | 1005.8 |
| 20260508073143 | 7 | 205 | 8.0 | 14.5 | 0.00 | 0.00 | 0.00 | 79 | 1005.9 |
| 20260508071541 | 8 | 186 | 8.0 | 12.9 | 0.00 | 0.00 | 0.00 | 78 | 1006.0 |
| 20260508070107 | 8 | 192 | 6.4 | 17.7 | 0.00 | 0.00 | 0.00 | 77 | 1006.1 |
| 20260508064642 | 8 | 195 | 9.7 | 19.3 | 0.00 | 0.00 | 0.00 | 75 | 1006.2 |
| 20260508063016 | 9 | 204 | 9.7 | 29.0 | 0.00 | 0.00 | 0.00 | 73 | 1006.2 |
| 20260508061556 | 9 | 290 | 8.0 | 22.5 | 0.00 | 0.00 | 0.00 | 69 | 1006.1 |
| 20260508060020 | 8 | 203 | 6.4 | 11.3 | 0.00 | 0.00 | 0.00 | 70 | 1006.2 |
| 20260508054559 | 8 | 202 | 1.6 | 9.7 | 0.00 | 0.00 | 0.00 | 74 | 1006.3 |
| 20260508053138 | 7 | 178 | 0.0 | 0.0 | 0.00 | 0.00 | 0.00 | 76 | 1006.5 |
| 20260508051645 | 7 | 158 | 0.0 | 0.0 | 0.00 | 0.00 | 0.00 | 77 | 1006.5 |
| 20260508050017 | 7 | 165 | 0.0 | 0.0 | 0.00 | 0.00 | 0.00 | 75 | 1006.7 |
| 20260508044601 | 8 | 146 | 0.0 | 3.2 | 0.00 | 0.00 | 0.00 | 73 | 1006.7 |
| 20260508043033 | 8 | 177 | 0.0 | 4.8 | 0.00 | 0.00 | 0.00 | 72 | 1006.7 |
| 20260508041610 | 8 | 173 | 1.6 | 6.4 | 0.00 | 0.00 | 0.00 | 69 | 1006.7 |
| 20260508040003 | 8 | 177 | 4.8 | 9.7 | 0.00 | 0.00 | 0.00 | 66 | 1006.6 |
| 20260508034606 | 9 | 195 | 4.8 | 12.9 | 0.00 | 0.00 | 0.00 | 65 | 1006.8 |
| 20260508033139 | 9 | 197 | 3.2 | 11.3 | 0.00 | 0.00 | 0.00 | 65 | 1006.9 |
| 20260508031510 | 9 | 212 | 4.8 | 12.9 | 0.00 | 0.00 | 0.00 | 63 | 1007.0 |
| 20260508030045 | 10 | 204 | 6.4 | 16.1 | 0.00 | 0.00 | 0.00 | 63 | 1007.0 |
| 20260508024606 | 10 | 198 | 6.4 | 19.3 | 0.00 | 0.00 | 0.00 | 60 | 1007.1 |
| 20260508023024 | 10 | 192 | 4.8 | 9.7 | 0.00 | 0.00 | 0.00 | 59 | 1007.1 |
| 20260508021605 | 10 | 224 | 1.6 | 8.0 | 0.00 | 0.00 | 0.00 | 57 | 1007.0 |
| 20260508020032 | 10 | 238 | 3.2 | 8.0 | 0.00 | 0.00 | 0.00 | 61 | 1006.9 |
| 20260508014558 | 8 | 240 | 1.6 | 11.3 | 0.00 | 0.00 | 0.00 | 65 | 1006.7 |
| 20260508013141 | 7 | 240 | 0.0 | 3.2 | 0.00 | 0.00 | 0.00 | 77 | 1006.6 |
| 20260508011639 | 7 | 290 | 0.0 | 3.2 | 0.00 | 0.00 | 0.00 | 79 | 1006.4 |
| 20260508010006 | 7 | 290 | 0.0 | 0.0 | 0.00 | 0.00 | 0.00 | 82 | 1006.3 |
| 20260508004603 | 8 | 290 | 0.0 | 3.2 | 0.00 | 0.00 | 0.00 | 72 | 1006.2 |
| 20260508003139 | 9 | 290 | 0.0 | 0.0 | 0.00 | 0.00 | 0.00 | 66 | 1006.2 |
| 20260508001634 | 10 | 290 | 0.0 | 3.2 | 0.00 | 0.00 | 0.00 | 58 | 1006.1 |
| 20260508000032 | 11 | 298 | 0.0 | 3.2 | 0.00 | 0.00 | 0.00 | 57 | 1006.0 |
| 20260507234603 | 11 | 288 | 0.0 | 4.8 | 0.00 | 0.00 | 0.00 | 54 | 1006.0 |
| 20260507233146 | 12 | 278 | 0.0 | 6.4 | 0.00 | 0.00 | 0.00 | 50 | 1005.9 |
| 20260507231548 | 12 | 301 | 1.6 | 6.4 | 0.00 | 0.00 | 0.00 | 48 | 1005.9 |
| 20260507230106 | 12 | 296 | 1.6 | 14.5 | 0.00 | 0.00 | 0.00 | 49 | 1006.0 |
| 20260507224541 | 12 | 251 | 3.2 | 9.7 | 0.00 | 0.00 | 0.00 | 48 | 1006.2 |
| 20260507223106 | 12 | 326 | 0.0 | 14.5 | 0.00 | 0.00 | 0.00 | 48 | 1006.2 |
| 20260507221641 | 12 | 277 | 1.6 | 11.3 | 0.00 | 0.00 | 0.00 | 45 | 1006.2 |
| 20260507220042 | 12 | 240 | 1.6 | 14.5 | 0.00 | 0.00 | 0.00 | 46 | 1006.1 |
| 20260507214606 | 12 | 242 | 8.0 | 16.1 | 0.00 | 0.00 | 0.00 | 44 | 1006.0 |
| 20260507213135 | 13 | 288 | 6.4 | 16.1 | 0.00 | 0.00 | 0.00 | 46 | 1006.0 |
| 20260507211542 | 13 | 295 | 3.2 | 17.7 | 0.00 | 0.00 | 0.00 | 48 | 1005.9 |
| 20260507210113 | 13 | 70 | 1.6 | 14.5 | 0.00 | 0.00 | 0.00 | 51 | 1005.8 |
| 20260507204656 | 13 | 247 | 3.2 | 9.7 | 0.00 | 0.00 | 0.00 | 53 | 1005.7 |
| 20260507203149 | 13 | 285 | 6.4 | 14.5 | 0.00 | 0.00 | 0.00 | 56 | 1005.6 |
| 20260507201529 | 13 | 327 | 3.2 | 22.5 | 0.00 | 0.00 | 0.00 | 51 | 1005.7 |
| 20260507200105 | 12 | 224 | 8.0 | 27.4 | 0.00 | 0.00 | 0.00 | 48 | 1005.7 |
| 20260507194608 | 13 | 268 | 12.9 | 25.7 | 0.00 | 0.00 | 0.00 | 44 | 1005.7 |
| 20260507193141 | 12 | 223 | 8.0 | 16.1 | 0.00 | 0.00 | 0.00 | 50 | 1005.9 |
| 20260507191520 | 12 | 294 | 11.3 | 22.5 | 0.00 | 0.00 | 0.00 | 49 | 1006.1 |
| 20260507190105 | 12 | 270 | 1.6 | 19.3 | 0.00 | 0.00 | 0.00 | 50 | 1006.0 |
| 20260507184521 | 13 | 238 | 9.7 | 17.7 | 0.00 | 0.00 | 0.00 | 52 | 1006.1 |
| 20260507183047 | 12 | 246 | 8.0 | 16.1 | 0.00 | 0.00 | 0.00 | 50 | 1006.1 |
| 20260507181615 | 13 | 209 | 11.3 | 24.1 | 0.00 | 0.00 | 0.00 | 49 | 1006.1 |
| 20260507180150 | 13 | 244 | 11.3 | 19.3 | 0.00 | 0.00 | 0.00 | 53 | 1006.2 |
| 20260507174539 | 13 | 250 | 8.0 | 17.7 | 0.00 | 0.00 | 0.00 | 53 | 1006.2 |
| 20260507173105 | 12 | 173 | 6.4 | 17.7 | 0.00 | 0.00 | 0.00 | 50 | 1006.4 |
| 20260507171527 | 12 | 188 | 9.7 | 17.7 | 0.00 | 0.00 | 0.00 | 47 | 1006.5 |
| 20260507170100 | 12 | 293 | 6.4 | 14.5 | 0.00 | 0.00 | 0.00 | 54 | 1006.5 |
| 20260507164541 | 11 | 313 | 3.2 | 19.3 | 0.00 | 0.00 | 0.00 | 51 | 1006.5 |
| 20260507163113 | 12 | 315 | 4.8 | 16.1 | 0.00 | 0.00 | 0.00 | 51 | 1006.4 |
| 20260507161647 | 12 | 229 | 6.4 | 12.9 | 0.00 | 0.00 | 0.00 | 54 | 1006.4 |
| 20260507160024 | 11 | 269 | 3.2 | 11.3 | 0.00 | 0.00 | 0.00 | 55 | 1006.6 |
| 20260507154601 | 11 | 236 | 6.4 | 19.3 | 0.00 | 0.00 | 0.00 | 51 | 1006.7 |
| 20260507153017 | 11 | 293 | 3.2 | 11.3 | 0.00 | 0.00 | 0.00 | 56 | 1006.7 |
| 20260507151600 | 11 | 200 | 1.6 | 19.3 | 0.00 | 0.00 | 0.00 | 62 | 1006.7 |
| 20260507150043 | 11 | 323 | 3.2 | 9.7 | 0.00 | 0.00 | 0.00 | 63 | 1006.7 |
| 20260507144607 | 11 | 207 | 3.2 | 11.3 | 0.00 | 0.00 | 0.00 | 66 | 1006.7 |
| 20260507143037 | 10 | 275 | 4.8 | 12.9 | 0.00 | 0.00 | 0.00 | 70 | 1006.7 |
| 20260507141604 | 10 | 296 | 1.6 | 14.5 | 0.00 | 0.00 | 0.00 | 68 | 1006.7 |
| 20260507140011 | 9 | 260 | 4.8 | 11.3 | 0.00 | 0.00 | 0.00 | 74 | 1006.8 |